Helicity
37 39 53 77 116 38 143 1 119 138 277 165 253 151 248 279 294 235 247 182 178 191 183 160 140 162 160 131 121 103 84 89 49 50 75 48 36 23
33 25 33 77 106 -36 -7 175 187 43 25 238 423 427 137 236 309 350 277 238 193 174 209 188 195 209 198 203 185 137 160 112 78 72 86 60 27 4
48 36 26 51 78 87 -35 -87 84 179 144 151 192 405 405 239 361 326 288 285 242 174 172 200 208 259 237 213 302 183 161 149 104 82 70 64 48 41
54 45 29 25 60 85 26 18 -43 95 31 201 312 410 647 195 294 311 299 262 187 149 166 200 221 271 226 196 286 168 165 179 136 120 100 74 59 55
67 47 35 11 40 66 86 35 -96 40 141 6 59 128 419 453 230 336 360 283 184 138 156 210 195 228 209 176 154 178 201 209 179 159 120 106 89 74
79 62 52 20 17 41 68 80 34 -114 -9 140 -22 -3 237 411 404 274 296 275 167 162 147 146 158 242 205 173 161 194 227 219 193 158 137 137 138 120
92 78 59 39 20 32 41 68 66 -50 -132 59 -64 -153 126 217 344 182 270 217 214 225 217 182 232 284 248 127 106 201 216 232 187 151 150 143 140 138
76 74 50 45 51 47 66 58 52 76 36 -83 -66 35 119 62 157 407 185 315 292 239 248 224 254 279 267 103 147 127 162 171 179 162 158 142 141 130
65 80 64 56 42 22 25 64 62 55 76 -20 -66 43 105 -22 112 122 337 307 177 276 260 266 276 211 217 246 169 191 183 167 197 168 162 156 138 111
67 77 88 83 72 47 30 37 49 30 20 53 -80 12 16 -3 30 84 281 319 540 177 202 320 296 233 222 212 183 187 175 188 170 168 153 150 144 137
68 81 90 102 86 49 35 12 24 43 26 34 57 85 72 177 48 108 189 176 313 367 302 330 352 330 297 263 229 181 181 144 141 164 156 167 174 160
76 88 58 64 64 47 24 3 -9 17 6 29 49 99 72 18 9 3 82 139 208 364 313 329 431 523 500 434 281 256 207 151 179 176 179 191 203 234
91 91 95 46 38 41 36 33 6 -3 22 20 34 65 77 -29 -29 -111 91 182 214 216 398 300 420 564 413 391 436 279 291 237 243 205 202 212 220 254
76 107 90 37 42 38 43 39 26 11 -7 12 28 57 91 23 9 -128 -161 17 205 275 492 356 327 410 417 509 346 409 363 288 308 312 321 272 248 246
2 6 23 39 47 58 66 71 75 51 18 5 33 40 66 85 39 -35 -163 -112 -23 112 281 491 126 312 420 571 498 286 543 449 387 406 410 426 490 457
4 -19 21 35 46 67 70 76 79 71 46 13 28 48 51 55 58 16 16 -127 -32 -54 169 343 361 141 476 548 445 369 337 439 498 431 446 519 505 434
15 16 23 35 47 62 81 82 75 62 49 37 39 47 52 56 85 97 65 77 19 -29 137 336 335 312 265 335 402 404 458 431 363 569 608 443 502 451
10 23 40 46 49 47 46 47 44 46 40 30 16 18 40 56 63 86 92 103 -23 8 38 230 353 336 333 369 398 505 465 487 508 499 597 509 510 445
28 37 34 46 54 54 47 36 27 23 19 26 21 15 25 41 63 74 107 105 5 -7 -36 133 236 331 368 308 368 481 496 567 567 555 530 395 485 448
54 52 51 55 57 56 60 46 33 19 6 -0 8 18 27 40 59 78 107 125 81 -43 -84 97 235 301 441 392 468 485 470 537 549 473 556 618 556 463
51 57 53 51 68 77 75 69 54 37 4 3 13 36 39 50 53 65 91 91 115 154 246 222 231 212 438 541 552 491 480 476 469 577 551 598 590 549
45 60 69 65 64 76 96 97 90 62 28 1 15 41 54 70 67 64 84 115 138 184 249 178 215 361 432 270 385 613 671 606 557 476 495 492 496 499
58 68 80 73 66 73 87 92 89 77 47 21 7 43 72 68 76 69 90 112 134 173 203 275 353 482 418 472 627 669 777 725 674 696 675 424 416 397
Wind_Speed
91 91 92 88 90 87 88 84 86 81 81 79 63 86 91 85 77 74 77 77 79 84 81 77 69 62 56 51 44 38 35 32 30 29 27 26 25 23
89 90 90 90 87 88 89 89 91 96 99 77 77 79 88 85 79 79 73 72 75 83 87 81 75 68 64 58 51 44 36 34 31 29 28 26 23 19
88 90 90 86 90 87 88 87 84 91 108 114 83 80 85 78 80 74 72 79 74 79 87 91 82 74 69 62 60 53 44 38 35 33 31 28 25 21
86 90 90 86 90 89 92 97 93 87 92 104 99 93 93 87 77 68 73 75 73 77 83 88 89 80 77 72 62 59 46 44 41 37 35 33 30 26
84 87 88 87 90 89 90 93 93 90 93 93 94 87 83 76 82 75 72 70 78 77 78 80 88 89 81 78 70 62 54 49 46 43 40 36 33 29
82 83 86 88 89 88 89 91 93 96 94 95 94 86 78 78 79 77 82 76 80 75 74 84 86 87 86 87 76 68 64 55 53 48 45 41 38 36
80 82 82 86 89 90 91 91 91 95 97 103 105 89 82 76 72 79 84 78 85 81 75 76 83 89 95 86 89 71 68 63 58 53 49 46 43 40
79 80 80 84 88 91 94 97 97 100 105 105 105 105 97 87 75 72 81 86 88 76 74 78 81 83 92 91 86 69 60 61 60 57 53 49 46 44
76 79 80 80 84 85 89 93 98 99 105 106 110 107 101 93 84 79 73 88 94 75 75 86 74 84 83 79 71 68 64 63 63 61 57 52 50 47
76 78 81 82 81 85 88 93 97 99 101 105 109 109 108 94 93 86 83 81 88 90 81 87 76 84 80 79 74 70 66 64 63 61 59 57 54 49
73 75 76 80 81 85 88 92 95 99 96 103 109 113 111 111 101 91 90 82 81 79 82 80 84 82 84 85 79 70 67 64 63 61 60 59 54 49
69 72 79 80 80 82 84 87 96 96 95 100 102 106 105 107 102 102 97 93 82 84 85 85 78 74 82 83 80 77 73 68 67 64 63 63 54 51
68 69 70 75 79 81 84 86 92 91 94 99 102 103 104 103 101 101 103 98 103 94 80 86 89 84 86 84 82 76 74 71 72 69 64 58 53 51
72 72 73 76 77 78 82 85 86 90 92 95 100 106 110 108 104 101 101 106 106 110 97 84 86 91 87 83 85 80 79 73 70 68 65 59 56 56
59 68 77 80 80 81 84 85 85 86 92 99 104 106 107 105 102 105 101 99 101 103 99 87 92 87 86 90 86 79 80 81 73 65 64 62 59 56
58 58 59 65 68 71 74 77 80 85 92 101 105 103 103 105 110 104 107 107 110 107 100 97 89 84 81 88 89 82 82 83 74 68 66 66 59 55
53 50 49 48 49 53 60 66 70 76 85 92 100 104 106 107 113 107 110 106 117 116 111 96 86 81 81 80 81 86 87 81 74 71 69 69 59 55
51 51 51 51 52 54 58 62 67 73 79 85 94 100 106 110 111 110 111 113 116 115 114 96 86 77 75 70 73 83 79 79 69 66 66 69 60 49
54 53 53 53 55 57 60 63 67 69 72 77 86 96 104 110 112 114 115 117 121 120 111 98 96 97 95 95 80 74 74 74 66 65 64 64 59 49
57 57 56 56 56 57 60 64 67 70 73 78 83 91 102 109 113 116 116 119 121 120 118 103 102 103 100 99 90 81 69 71 66 61 69 51 40 39
49 53 53 53 56 58 59 61 65 71 75 78 84 90 96 106 116 119 118 122 121 121 126 119 109 96 86 74 76 67 64 62 57 60 56 55 49 49
33 46 51 53 54 56 59 63 67 70 74 79 83 88 95 100 113 118 121 121 124 125 125 118 101 93 86 92 87 76 60 54 44 45 50 55 53 58
34 34 50 55 56 54 58 64 68 73 76 80 84 87 89 100 104 112 117 120 119 123 122 116 107 102 98 93 82 74 62 55 54 48 42 45 40 35
Wind_Direction
260 259 257 257 257 255 254 255 252 252 251 249 248 241 240 241 239 235 239 239 238 234 232 231 233 231 227 227 230 229 233 235 240 239 238 242 250 255
260 258 258 256 255 254 255 254 254 252 248 250 247 255 245 244 241 238 235 237 237 236 234 232 232 230 228 226 228 227 227 228 229 229 231 233 237 240
261 258 257 256 255 254 253 252 253 252 250 249 256 262 260 244 244 236 235 239 241 237 234 235 231 229 230 226 226 229 229 227 225 228 229 230 233 234
263 258 257 257 254 254 252 251 252 251 251 250 257 263 264 243 242 236 235 242 241 240 235 232 234 232 234 238 221 226 226 229 229 227 225 227 230 232
265 260 257 257 254 253 253 251 251 253 252 254 254 259 260 259 240 240 236 238 239 239 235 233 234 233 236 236 235 233 230 228 230 227 225 228 232 234
264 262 259 256 254 253 252 252 251 250 250 250 251 256 257 254 255 240 238 237 237 238 238 238 235 235 239 240 234 234 235 233 230 227 227 227 234 241
265 262 261 257 255 254 252 252 250 248 248 246 245 253 253 252 254 247 240 234 236 238 240 241 238 238 238 240 240 240 238 235 230 228 230 237 240 241
267 263 261 259 256 255 254 252 251 249 246 246 246 247 249 251 256 256 245 235 236 237 238 241 238 239 234 238 241 239 229 228 225 228 233 238 243 248
268 264 262 261 258 256 255 254 252 251 248 247 246 245 248 250 253 253 256 244 240 241 235 239 237 239 239 240 235 235 234 231 229 231 234 238 245 250
267 264 262 261 260 258 257 255 254 252 250 248 247 247 246 250 249 253 257 257 256 243 232 239 237 239 239 240 237 237 235 233 231 231 233 241 246 252
267 264 264 262 260 259 257 255 255 253 253 251 250 250 251 250 250 252 252 255 253 246 230 237 241 237 237 239 239 234 232 230 231 232 236 241 246 250
270 266 260 261 262 260 258 257 255 254 254 251 251 250 250 250 249 247 248 248 251 254 238 234 237 236 237 240 237 236 237 235 236 234 236 243 244 252
270 271 271 266 264 262 260 259 256 257 255 253 251 250 249 249 248 247 246 248 245 249 252 241 238 238 237 239 239 237 236 239 238 239 238 238 240 245
268 275 274 269 267 266 263 261 260 258 255 253 251 249 246 246 247 248 249 247 247 247 251 252 243 234 235 241 239 239 237 237 236 237 240 241 241 246
289 278 268 268 267 266 263 262 262 259 256 253 251 250 248 249 249 247 249 249 249 247 247 251 246 240 235 239 241 239 235 237 237 235 238 238 240 244
298 296 295 278 273 270 267 265 263 261 258 254 252 252 251 248 246 245 247 246 245 246 246 247 251 245 241 240 238 240 239 237 236 234 237 241 242 245
317 310 306 302 293 285 277 271 269 265 260 257 253 252 250 248 246 246 245 248 244 243 244 247 249 251 245 243 244 243 237 240 238 235 239 238 243 243
324 316 307 302 295 287 281 277 271 268 266 262 257 253 250 248 246 245 244 244 243 242 241 244 245 244 243 248 252 240 238 240 236 236 239 236 240 244
330 320 313 305 294 289 284 279 275 272 270 267 262 256 252 249 247 245 244 243 242 241 242 240 239 241 242 244 247 241 237 236 236 237 235 236 243 238
328 324 317 310 300 291 286 284 280 278 274 270 267 261 254 249 247 244 243 241 240 240 238 238 237 236 238 240 239 245 240 234 232 232 234 244 251 246
304 308 305 303 302 297 291 284 282 281 277 276 269 264 258 250 247 244 242 240 238 237 236 236 235 235 239 239 239 238 242 242 237 229 228 237 239 245
288 296 300 299 299 295 294 292 289 282 279 276 275 268 259 253 247 244 241 239 236 236 236 236 234 231 234 235 237 232 235 239 240 237 243 241 236 245
290 288 298 301 300 295 294 294 291 290 285 280 278 272 264 253 249 244 240 238 237 235 234 232 229 231 233 236 227 228 232 228 234 237 252 250 258 259